Location: Punta su Pinnoni
(39.5167°N, 8.4500°E)
Time: 10:20:00
(UTC+00:00)

Daily predictions for brighter satellites

Satellite Brightness Start Highest point End
(mag) Time Altitude Azimuth Time Altitude Azimuth Time Altitude Azimuth
Cosmos 841 Rocket 3.5 18:47:26 10° NNW 18:52:38 85° ENE 18:57:46 10° SSE
DELTA 2 R/B (1) 3.7 18:48:29 10° W 18:54:06 88° N 18:59:40 10° E
Resurs 01 Rocket 3.5 18:53:19 10° E 18:55:55 16° ENE 18:58:32 10° NNE
Cosmos 1603 3.8 18:51:07 10° NNW 18:56:49 87° WSW 19:02:26 10° SSE
SAR-Lupe-4 3.7 18:53:38 10° N 18:57:14 79° WNW 19:00:48 10° SSW
FALCON 9 DEB 4.3 18:57:14 10° WNW 19:00:26 37° SW 19:03:38 10° SSE
Cosmos 1174 4.1 19:02:39 10° NW 19:06:11 51° WSW 19:09:12 10° SSE
Lacrosse 5 rocket 3.8 19:08:59 10° WNW 19:12:07 19° WSW 19:15:18 10° SSW
MOS 1-B Rocket 4.3 19:07:09 10° NNE 19:14:37 69° ESE 19:20:56 10° S
Meteor 2-15 Rocket 4.4 19:10:55 10° S 19:16:59 85° E 19:23:05 10° N
SJ-6B 2.7 19:14:06 10° SSE 19:17:55 81° ENE 19:21:51 10° N
Cosmos 1408 Rocket 4.1 19:22:37 10° NNW 19:26:58 60° W 19:31:19 10° S
SL-08 ROCKET BODY 4.4 19:21:13 10° N 19:27:03 61° E 19:32:50 10° SSE
Cosmos 1842 Rocket 4.4 19:22:50 10° SSW 19:27:14 56° W 19:31:39 10° N
Cosmos 1570 Rocket 4.3 19:22:03 10° NNW 19:27:15 67° WSW 19:32:25 10° S
Ariane Rocket 3.0 19:22:36 10° SSE 19:27:35 65° ENE 19:32:36 10° N
USA 290 4.4 19:27:16 10° NNE 19:29:05 14° ENE 19:30:10 12° E
Cosmos 921 Rocket 3.8 19:26:11 10° NNW 19:30:18 48° WSW 19:34:20 10° S
ASTRO E2 4.3 19:29:32 10° WSW 19:32:35 21° S 19:34:27 16° SSE
Cosmos 1606 2.6 19:29:24 10° S 19:33:08 89° E 19:36:56 10° N
IRIS 4.1 19:30:54 10° W 19:33:13 57° N 19:35:32 14° ENE
FALCON 9 DEB 3.3 19:31:00 10° NW 19:34:00 50° NE 19:35:41 22° ESE
Cosmos 1943 4.2 19:29:13 10° NW 19:34:32 44° WSW 19:39:51 10° S
Cosmos 1844 Rocket 2.6 19:29:32 10° SSW 19:35:04 79° ESE 19:40:40 10° NNE
SL-4 R/B 2.4 19:38:12 10° NW 19:42:36 64° NE 19:45:35 21° ESE
Cosmos 1354 Rocket 4.5 19:38:59 10° S 19:43:48 39° ESE 19:48:38 10° NE
ARIANE 5 R/B 4.4 19:43:07 14° E 19:44:33 16° ENE 19:47:13 10° NNE
Cosmos 1805 Rocket 3.7 19:40:28 10° N 19:44:44 56° E 19:47:34 20° SSE
X-37B 2.4 19:42:11 10° WNW 19:45:02 28° N 19:47:52 10° ENE
IRS-1A Rocket 4.4 19:43:17 10° S 19:49:00 79° WSW 19:54:52 10° NNW
Milstar 3 4.5 19:36:35 10° SW 19:50:20 34° SSE 19:56:05 19° ESE
SPOT 3 Rocket 3.7 19:49:01 21° SE 19:52:23 56° ENE 19:57:25 10° N
Cosmos 1633 Rocket 4.3 19:49:29 10° NNE 19:53:08 25° ENE 19:54:17 22° E
Cosmos 1745 Rocket 3.9 19:47:42 10° N 19:53:54 69° E 19:58:40 17° SSE
Resurs 1-3 3.8 19:50:49 14° S 19:54:36 73° W 19:59:00 10° NNW
Landsat 7 4.1 19:52:36 24° SE 19:55:12 49° ENE 19:59:47 10° N
Cosmos 1844 3.7 19:49:32 10° SSW 19:55:17 88° WNW 20:01:01 10° NNE
Cosmos 968 Rocket 4.1 19:50:56 10° SSW 19:56:06 59° WNW 20:01:17 10° NNE
Cosmos 1709 Rocket 4.5 19:50:56 10° N 19:56:40 41° ENE 19:59:47 24° SE
Cosmos 1743 Rocket 4.3 19:54:35 10° NNW 19:58:48 51° W 20:03:01 10° SSW
BREEZE-M DEB (TANK) 4.4 19:55:09 10° WNW 19:59:26 61° NNE 20:06:54 14° E
NOSS 3-3 (A) 4.0 19:54:51 10° S 20:00:07 45° ESE 20:06:00 10° NE
NOSS 3-3 (C) 4.0 19:54:57 10° S 20:00:15 45° ESE 20:06:07 10° NE
Cosmos 1328 Rocket 4.4 19:59:50 28° ESE 20:00:41 30° E 20:04:34 10° NNE
ATLAS 5 CENTAUR R/B 3.1 19:56:46 10° NNW 20:02:07 40° NE 20:05:41 22° ESE
Cosmos 1486 Rocket 4.5 19:58:21 10° SSW 20:03:37 64° WNW 20:08:55 10° NNE
Meteor 1-26 Rocket 4.4 20:02:16 19° SSE 20:06:16 54° E 20:11:42 10° NNE
IGS 5A 3.4 20:04:27 31° SSE 20:06:22 74° ENE 20:10:32 10° N
Intercosmos 25 Rocket 4.2 20:02:09 10° NNW 20:08:09 63° W 20:11:06 17° S
Cosmos 2315 Rocket 4.2 20:04:40 21° SSE 20:08:53 53° E 20:15:04 10° NNE
S3M 4.1 20:03:13 10° S 20:09:36 80° W 20:16:00 10° N
Cosmos 1833 Rocket 4.4 20:07:41 10° N 20:11:45 20° NE 20:14:00 16° E
BREEZE-M R/B 4.2 20:10:06 10° W 20:12:22 24° NNW 20:14:27 10° NE
Cosmos 1666 Rocket 3.6 20:14:30 10° N 20:18:52 59° E 20:19:58 44° SE
FALCON 9 DEB 3.8 20:17:15 10° WNW 20:20:03 36° SW 20:20:03 36° SW
Cosmos 1933 3.7 20:17:12 17° SSW 20:20:13 65° W 20:24:15 10° N
Meteor 2-17 Rocket 4.4 20:15:55 10° N 20:22:04 70° E 20:25:05 32° SSE
USA 245 4.5 20:23:41 17° NNE 20:23:41 17° NNE 20:24:27 10° N
Cosmos 1242 Rocket 3.0 20:24:03 27° SSW 20:25:50 60° W 20:29:22 10° N
OBJECT-B 4.1 20:25:33 10° W 20:25:51 10° W 20:26:09 10° W
FALCON 9 DEB 4.3 20:23:37 10° WNW 20:26:05 28° SW 20:26:05 28° SW
Resurs 01 Rocket 2.4 20:29:42 25° SSW 20:31:59 49° W 20:36:19 10° NNW
BREEZE M DEB (TANK) 4.3 20:29:35 10° NW 20:32:32 17° N 20:34:07 11° NE
FALCON 9 DEB 4.4 20:32:23 10° WNW 20:34:36 29° WSW 20:34:36 29° WSW
Spot 2 Rocket 3.5 20:34:12 46° SE 20:35:30 63° ENE 20:40:30 10° N
Cosmos 773 Rocket 4.4 20:30:47 10° N 20:35:55 47° ENE 20:37:01 41° ESE
SJ 16-02 3.1 20:38:19 19° ENE 20:38:19 19° ENE 20:40:08 10° NE
DELTA 2 R/B (1) 3.5 20:35:00 10° W 20:40:32 69° SSW 20:41:51 50° SE
Sich 1 4.1 20:36:59 10° NNW 20:41:04 42° W 20:43:00 26° SW
Meteor 2-6 Rocket 4.4 20:41:13 45° ESE 20:41:46 46° E 20:46:57 10° NNE
COSMOS 2406 4.1 20:37:19 10° N 20:42:26 33° ENE 20:43:43 30° E
Cosmos 1782 3.1 20:43:16 44° SW 20:44:18 63° W 20:48:16 10° N
Cosmos 2082 Rocket 3.9 20:41:04 10° N 20:44:59 19° NE 20:46:29 17° ENE
BREEZE-M DEB (TANK) 4.4 20:44:20 10° W 20:45:33 17° SW 20:45:33 17° SW
CZ-4C R/B 3.6 20:40:37 10° NNW 20:47:39 46° NE 20:51:18 30° ESE
Cosmos 1500 3.6 20:44:05 10° N 20:47:10 50° NE 20:47:10 50° NE
ERS-1 Rocket 3.0 20:50:52 54° ESE 20:51:26 58° ENE 20:56:22 10° N
SPOT 5 3.0 20:52:52 56° ESE 20:53:25 59° ENE 20:58:32 10° N
Cosmos 1271 Rocket 4.4 21:00:22 25° NE 21:00:22 25° NE 21:02:21 10° NNE
H-2A R/B 4.5 20:55:05 10° NNE 20:57:49 35° NE 20:57:49 35° NE
Cosmos 1151 Rocket 4.0 20:58:03 29° SW 20:59:46 43° WNW 21:03:57 10° N
Cosmos 1777 Rocket 3.9 20:58:39 52° SSW 20:59:59 89° WNW 21:05:13 10° NNE
Terra 2.2 21:02:23 49° ENE 21:02:23 49° ENE 21:06:52 10° N
USA 290 4.3 21:00:48 10° NW 21:02:58 24° W 21:02:58 24° W
Cosmos 2278 Rocket 2.0 21:05:44 64° SSE 21:06:32 75° ESE 21:12:12 10° NNE
Cosmos 1515 Rocket 3.8 21:17:35 65° WNW 21:17:35 65° WNW 21:21:50 10° N
ARIANE 5 R/B 3.4 21:20:40 44° W 21:20:40 44° W 21:24:47 10° NNW
SL-4 R/B 4.1 21:18:24 10° WNW 21:21:08 22° WSW 21:21:08 22° WSW
X-37B 3.2 21:18:56 10° WNW 21:20:09 21° NW 21:20:09 21° NW
Meteor 1-10 Rocket 4.0 21:22:59 81° SSE 21:23:14 85° E 21:28:53 10° N
Cosmos 1943 Rocket 4.3 21:30:26 13° ENE 21:30:26 13° ENE 21:31:21 10° ENE
Cosmos 1812 4.2 21:31:31 35° NW 21:31:31 35° NW 21:34:32 10° N
Cosmos 2154 Rocket 4.1 21:26:34 10° N 21:32:49 59° E 21:33:02 59° E
Cosmos 2184 Rocket 3.8 21:34:35 10° N 21:40:49 81° W 21:41:19 75° SSW
Meteor 1-5 Rocket 4.4 21:36:38 10° NNW 21:41:53 55° W 21:42:00 55° W
NOSS 3-4 (A) 4.2 21:38:26 10° NNW 21:45:22 55° NE 21:47:03 46° E
NOSS 3-4 (C) 4.3 21:38:33 10° NNW 21:45:28 54° NE 21:47:10 46° E
ATLAS 5 CENTAUR R/B 3.2 21:41:18 10° NW 21:46:51 39° WSW 21:47:13 39° SW
Cosmos 2074 Rocket 4.1 21:42:31 10° NNW 21:48:46 68° W 21:49:23 64° SW
Nadezhda 1 Rocket 3.9 21:51:52 80° SW 21:52:12 84° W 21:58:31 10° N
Cosmos 1833 Rocket 3.0 21:50:33 10° NNW 21:55:42 60° W 21:55:42 60° W
ATLAS 2AS CENTAUR R/B 3.6 21:51:59 10° NNW 21:58:49 40° NE 22:00:32 35° ENE
Meteor 2-12 Rocket 4.4 21:53:03 10° N 21:59:02 78° W 21:59:02 78° W
Cosmos 1610 Rocket 4.5 22:04:43 10° NNW 22:10:38 71° WNW 22:10:38 71° WNW
SJ 16-02 3.2 22:15:15 27° WNW 22:15:15 27° WNW 22:18:46 10° N
Meteor 1-27 Rocket 4.3 22:18:37 53° WNW 22:18:37 53° WNW 22:24:21 10° N
Cosmos 1680 Rocket 4.2 22:17:23 10° NNW 22:21:27 51° N 22:21:27 51° N
Cosmos 2341 Rocket 4.1 22:17:13 10° N 22:23:08 71° NE 22:23:08 71° NE
COSMOS 2406 4.5 22:21:38 10° NW 22:25:47 32° W 22:25:47 32° W
Cosmos 2082 Rocket 2.8 22:23:59 10° NNW 22:28:19 51° NW 22:28:19 51° NW
CZ-4C R/B 3.5 22:29:09 10° NW 22:36:25 47° WSW 22:36:28 47° WSW
Terra 4.2 22:41:15 15° WNW 22:41:15 15° WNW 22:43:13 10° NW
Cosmos 2218 Rocket 4.3 22:36:36 10° N 22:42:06 63° NE 22:42:06 63° NE
Cosmos 2369 Rocket 3.3 23:03:27 38° NE 23:03:27 38° NE 23:06:56 10° NNE
Cosmos 1943 Rocket 2.9 23:11:54 49° NNW 23:11:54 49° NNW 23:16:20 10° NNE
SL-8 Rocket 4.5 23:06:16 10° NNW 23:11:34 53° WNW 23:11:34 53° WNW
Meteor 2-4 Rocket 4.4 23:20:31 54° N 23:20:31 54° N 23:24:52 10° N
SeaSat 1 3.6 23:35:06 10° NNE 23:38:19 40° N 23:38:19 40° N
USA 215 3.3 23:42:20 74° NE 23:42:29 74° NE 23:49:01 10° NW
ATLAS 2AS CENTAUR R/B 3.6 23:43:06 10° NW 23:47:56 37° WNW 23:47:56 37° WNW
CZ-2D R/B 4.2 23:50:56 10° NE 23:53:55 18° E 23:53:55 18° E
